Location: Newark
(51.7378°N, 19.8125°E)
Time: 06:49:26
(UTC+00:00)

Envisat - Pass Details

Date: 16 December 2019
Orbit: 764 x 766 km, 98.1° (Epoch: 20 January)

Event Time Altitude Azimuth Distance (km) Brightness Sun altitude
Rises 17:14:21 0° 190° (S) 3,222 6.5 -23.9°
Reaches altitude 10° 17:16:50 10° 199° (SSW) 2,301 5.8 -24.3°
Maximum altitude 17:21:27 35° 265° (W) 1,230 4.6 -25.0°
Drops below altitude 10° 17:26:07 10° 331° (NNW) 2,316 5.7 -25.7°
Sets 17:28:38 0° 340° (NNW) 3,247 6.4 -26.1°
